TimeEDT,TemperatureF,Dew PointF,Humidity,Sea Level PressureIn,VisibilityMPH,Wind Direction,Wind SpeedMPH,Gust SpeedMPH,PrecipitationIn,Events,Conditions,WindDirDegrees,DateUTC
12:53 AM,75.0,73.0,94,30.00,10.0,NNW,4.6,-,N/A,,Clear,330,2012-09-21 04:53:00
1:53 AM,75.0,73.0,94,29.99,10.0,Calm,Calm,-,N/A,,Clear,0,2012-09-21 05:53:00
2:53 AM,75.0,73.0,94,29.99,10.0,NW,3.5,-,N/A,,Clear,310,2012-09-21 06:53:00
3:53 AM,75.0,73.0,94,29.98,10.0,Calm,Calm,-,N/A,,Clear,0,2012-09-21 07:53:00
4:53 AM,75.0,73.0,94,29.97,10.0,Calm,Calm,-,N/A,,Clear,0,2012-09-21 08:53:00
5:53 AM,75.0,73.0,94,29.99,10.0,Calm,Calm,-,N/A,,Clear,0,2012-09-21 09:53:00
6:53 AM,75.0,73.0,94,29.99,9.0,NNW,3.5,-,N/A,,Clear,340,2012-09-21 10:53:00
7:53 AM,75.9,73.9,94,30.00,8.0,Calm,Calm,-,N/A,,Clear,0,2012-09-21 11:53:00
8:53 AM,79.0,75.0,88,30.00,10.0,North,4.6,-,N/A,,Scattered Clouds,360,2012-09-21 12:53:00
9:53 AM,81.0,77.0,88,30.01,10.0,NNE,5.8,-,N/A,,Scattered Clouds,30,2012-09-21 13:53:00
9:56 AM,80.6,77.0,89,30.01,10.0,NNE,8.1,-,N/A,,Partly Cloudy,30,2012-09-21 13:56:00
10:53 AM,82.9,75.9,79,30.01,10.0,NNE,10.4,-,N/A,,Scattered Clouds,20,2012-09-21 14:53:00
11:03 AM,82.4,75.2,79,30.01,10.0,NNE,9.2,-,N/A,,Mostly Cloudy,20,2012-09-21 15:03:00
11:29 AM,82.4,75.2,79,30.00,10.0,North,10.4,-,N/A,,Mostly Cloudy,10,2012-09-21 15:29:00
11:49 AM,86.0,75.2,70,29.99,10.0,NNE,10.4,-,N/A,,Scattered Clouds,30,2012-09-21 15:49:00
11:53 AM,84.0,75.9,76,29.99,10.0,North,12.7,-,N/A,,Scattered Clouds,360,2012-09-21 15:53:00
12:14 PM,84.2,75.2,74,29.99,10.0,North,9.2,-,N/A,,Mostly Cloudy,360,2012-09-21 16:14:00
12:53 PM,84.9,75.0,72,29.99,10.0,NE,8.1,-,N/A,,Mostly Cloudy,40,2012-09-21 16:53:00
1:53 PM,84.9,73.9,69,29.98,10.0,NE,9.2,-,N/A,,Mostly Cloudy,50,2012-09-21 17:53:00
2:53 PM,84.0,73.9,72,29.96,10.0,NE,9.2,-,N/A,,Mostly Cloudy,50,2012-09-21 18:53:00
3:00 PM,84.2,73.4,70,29.95,10.0,NE,10.4,-,N/A,,Clear,50,2012-09-21 19:00:00
3:26 PM,82.4,73.4,74,29.96,10.0,ENE,6.9,-,0.00,Rain-Thunderstorm,Light Rain,70,2012-09-21 19:26:00
3:53 PM,79.0,73.9,84,29.96,9.0,North,3.5,-,0.01,Rain-Thunderstorm,Light Rain,10,2012-09-21 19:53:00
4:53 PM,80.1,75.9,87,29.94,10.0,NE,4.6,-,0.05,Rain,Light Rain,40,2012-09-21 20:53:00
5:16 PM,78.8,75.2,89,29.96,10.0,NW,4.6,-,0.01,Rain,Light Rain,320,2012-09-21 21:16:00
5:46 PM,77.0,73.4,89,29.96,10.0,NW,3.5,-,0.01,Rain,Light Rain,320,2012-09-21 21:46:00
5:53 PM,78.1,75.0,90,29.96,10.0,NNW,3.5,-,0.01,,Scattered Clouds,340,2012-09-21 21:53:00
6:53 PM,77.0,75.0,94,29.97,10.0,NNW,5.8,-,N/A,,Clear,340,2012-09-21 22:53:00
7:53 PM,77.0,73.9,90,29.97,10.0,NNW,6.9,-,N/A,,Partly Cloudy,340,2012-09-21 23:53:00
8:16 PM,78.8,73.4,83,29.99,10.0,NNE,4.6,-,N/A,,Mostly Cloudy,20,2012-09-22 00:16:00
8:32 PM,77.0,71.6,83,30.01,2.5,East,17.3,24.2,0.02,Rain-Thunderstorm,Heavy Thunderstorms and Rain,100,2012-09-22 00:32:00
8:41 PM,73.4,71.6,94,30.01,1.5,ESE,17.3,24.2,0.22,Rain-Thunderstorm,Heavy Thunderstorms and Rain,110,2012-09-22 00:41:00
8:53 PM,73.0,71.1,93,30.02,1.5,ENE,11.5,20.7,0.49,Rain,Heavy Rain,60,2012-09-22 00:53:00
8:57 PM,73.4,71.6,94,30.03,2.0,ENE,9.2,20.7,0.05,Rain,Heavy Rain,60,2012-09-22 00:57:00
9:04 PM,73.4,71.6,94,30.03,3.0,ENE,11.5,-,0.07,Rain,Rain,70,2012-09-22 01:04:00
9:53 PM,73.9,71.1,91,30.03,4.0,Calm,Calm,-,0.24,Rain,Rain,0,2012-09-22 01:53:00
10:17 PM,73.4,71.6,94,30.03,2.5,Calm,Calm,-,0.06,Rain,Rain,0,2012-09-22 02:17:00
10:24 PM,73.4,71.6,94,30.02,4.0,Calm,Calm,-,0.08,Rain,Light Rain,0,2012-09-22 02:24:00
10:53 PM,73.0,71.1,93,30.02,8.0,Calm,Calm,-,0.12,Rain,Light Rain,0,2012-09-22 02:53:00
11:53 PM,73.9,72.0,93,30.01,10.0,Calm,Calm,-,0.02,,Partly Cloudy,0,2012-09-22 03:53:00